SCP
-0 0 0 0 0 0 0 0 0 0 0 0 0 0 0 0 0 0 0 -0 -0 -0 -0 -0 -0 -0 -0 -0 -0 -0 0 0 0 0 0 0 0 0 0 -0 -0 -0 -0
-0 0 0 0 0 0 0 0 0 0 0 0 0 0 0 0 0 0 0 0 -0 -0 -0 -0 -0 -0 -0 -0 -0 0 0 0 0 0 0 0 0 0 0 0 0 -0 -0
0 0 0 0 0 0 0 0 0 0 0 0 0 0 0 0 0 0 0 0 0 0 -0 -0 -0 -0 -0 -0 -0 0 0 0 0 0 0 0 0 0 0 0 0 0 0
0 0 0 0 0 0 0 0 0 0 0 0 0 0 0 0 0 0 0 0 0 0 0 -0 -0 -0 -0 -0 -0 0 0 0 0 0 0 0 0 0 0 0 0 0 0
0 0 0 0 0 0 0 0 0 0 0 0 0 0 0 0 0 0 0 0 0 0 0 0 -0 -0 -0 -0 -0 -0 0 0 0 0 0 0 0 0 0 0 0 0 0
-0 -0 0 0 0 0 0 0 0 0 0 0 0 0 0 0 0 0 0 0 0 0 0 0 -0 -0 -0 -0 -0 -0 -0 -0 -0 -0 -0 0 0 0 0 0 0 0 0
-0 -0 -0 0 0 0 0 0 0 0 0 0 0 0 0 0 0 0 0 0 0 0 0 0 0 0 -0 -0 -0 -0 -0 -0 -0 -0 -0 -0 -0 0 0 0 0 0 0
-0 -0 -0 0 0 0 0 0 0 0 0 0 0 0 0 0 0 0 0 0 0 0 0 0 0 0 0 0 0 -0 -0 -0 -0 -0 0 -0 -0 -0 0 0 0 0 0
-0 -0 -0 -0 0 0 0 0 0 0 0 0 0 0 0 0 0 0 0 0 0 0 0 0 0 0 0 0 0 0 -0 -0 -0 -0 0 0 -0 -0 -0 0 0 0 0
-0 -0 -0 -0 0 0 0 0 0 0 0 0 0 0 0 0 0 0 0 0 0 0 0 0 0 0 0 0 0 0 0 -0 -0 -0 0 0 0 -0 -0 0 0 0 0
-0 -0 -0 -0 -0 0 0 0 0 0 0 0 0 0 0 0 0 0 0 0 0 0 0 0 0 0 0 0 0 0 0 0 0 0 0 0 0 0 0 0 0 0 0
-0 -0 -0 -0 -0 0 0 0 0 0 0 0 0 0 0 0 0 0 0 0 0 0 0 0 0 0 0 0 0 0 0 0 0 0 0 0 0 0 0 0 0 0 0
-0 -0 -0 -0 0 0 0 0 0 0 0 0 0 0 0 0 0 0 0 0 0 0 0 0 0 0 0 0 0 0 0 0 0 0 0 0 0 0 0 0 0 0 0
0 0 0 0 0 0 0 0 0 0 0 0 0 0 0 0 0 0 0 0 0 0 0 0 0 0 0 0 0 0 0 0 0 0 0 0 0 0 0 0 0 0 0
0 0 0 0 0 0 0 0 0 0 0 0 0 0 0 0 0 0 0 0 0 0 0 0 0 0 0 0 0 0 0 0 0 0 0 0 0 0 0 0 0 0 0
0 0 0 0 0 0 0 0 0 0 0 0 0 0 0 0 0 0 0 0 0 0 0 0 0 0 0 0 0 0 0 0 0 0 0 0 0 0 0 0 0 0 0
0 0 0 0 0 0 0 0 0 0 0 0 0 0 0 0 0 0 0 0 0 0 0 0 0 0 0 0 0 0 0 0 0 0 0 0 0 0 0 0 0 0 0
1 1 0 0 0 0 0 0 0 0 0 0 0 0 0 0 0 0 0 0 0 0 0 0 0 0 0 0 0 0 0 0 0 0 0 0 0 0 0 0 0 0 0
1 1 1 1 1 0 0 0 0 0 0 0 0 0 0 0 0 0 0 0 0 0 0 0 0 0 0 0 0 0 0 0 0 0 0 0 0 0 0 0 0 0 0
1 1 1 1 1 1 1 1 1 1 1 1 1 1 1 1 1 0 0 0 0 0 0 0 0 0 1 0 0 0 0 0 0 0 0 0 0 0 0 0 0 0 0
1 1 1 1 1 1 1 2 2 1 1 1 1 1 1 1 1 0 0 0 0 0 0 0 0 0 0 0 0 0 0 0 0 0 0 0 0 0 0 0 0 0 0
1 1 1 1 2 2 2 2 2 2 1 1 1 0 0 0 0 0 0 0 0 0 0 0 0 0 0 0 0 0 0 0 0 0 0 0 0 0 0 0 0 0 0
2 2 2 2 2 2 2 2 2 2 1 1 0 0 0 0 0 0 0 0 0 0 0 0 0 0 0 0 0 0 0 0 0 0 0 0 0 0 0 0 0 0 0
2 2 2 2 2 2 2 2 2 1 1 0 0 0 0 0 0 0 0 0 0 0 0 0 0 0 0 0 0 0 0 0 0 0 0 0 0 0 0 0 0 0 0
2 2 2 2 1 1 1 1 1 1 0 0 0 0 0 0 0 0 0 0 0 0 0 0 0 0 0 0 0 0 0 0 0 0 0 0 0 0 0 0 0 0 0
1 1 2 2 1 1 1 1 0 0 0 0 0 0 0 0 0 0 0 0 0 0 0 0 0 0 0 0 0 0 0 0 0 0 0 0 0 0 0 0 0 0 0
Wind_Speed
6 8 18 17 16 15 14 14 14 14 14 14 14 13 12 12 11 11 10 10 9 8 7 7 8 8 9 9 9 9 9 8 8 8 9 8 8 8 8 9 9 7 10
11 11 18 18 17 16 15 14 14 13 13 13 13 12 12 11 11 10 10 10 9 8 7 6 6 7 8 8 8 8 7 7 6 6 7 6 5 6 6 7 7 5 8
13 11 15 18 18 16 15 14 14 13 13 12 12 12 12 11 11 10 9 9 8 8 7 5 5 6 6 7 7 7 7 6 6 5 5 2 2 3 5 5 7 7 7
13 10 12 18 17 16 15 14 13 13 12 12 11 11 11 10 10 10 9 8 7 7 6 5 5 5 5 6 6 6 6 5 5 5 3 2 2 2 5 7 7 7 7
10 8 12 19 17 16 15 14 13 12 11 11 10 10 9 8 8 8 7 6 6 5 5 5 4 4 4 5 5 5 5 5 5 4 2 3 3 4 5 8 8 9 8
9 8 11 19 17 17 16 15 13 13 11 10 9 9 8 7 7 6 6 5 4 4 4 4 4 4 4 4 4 5 5 6 5 3 3 3 4 7 10 10 11 11 10
8 7 9 18 17 17 16 15 14 13 11 10 9 8 8 7 7 6 5 5 4 4 4 4 4 4 5 5 6 6 6 7 5 3 4 4 5 9 11 13 13 12 11
9 7 8 18 18 17 16 15 14 13 11 10 9 9 8 7 7 7 6 6 5 5 5 5 5 5 6 7 7 7 8 8 6 4 4 4 7 8 10 13 13 13 13
7 6 5 8 12 16 15 14 13 12 11 10 9 9 8 7 7 7 7 7 7 7 7 7 7 7 7 7 8 9 9 9 7 4 5 4 7 9 11 13 14 15 15
6 5 5 5 5 6 8 13 13 12 11 10 9 9 9 8 7 7 7 7 9 9 9 9 10 10 9 9 10 10 10 9 6 5 5 6 10 11 12 12 14 15 16
8 6 5 5 5 5 5 8 10 11 11 9 8 9 8 3 3 4 6 9 11 11 11 11 12 12 11 11 12 12 11 5 6 6 5 9 12 13 13 12 12 14 15
12 11 7 6 6 5 5 4 3 4 4 5 3 3 2 3 3 5 6 12 13 13 13 13 13 12 10 5 8 11 5 7 7 6 7 13 14 14 14 12 12 12 13
11 11 9 8 6 6 4 4 3 3 3 4 4 3 2 2 2 4 3 6 7 9 6 7 7 5 5 5 5 6 7 7 5 6 8 14 15 15 15 14 13 11 12
9 12 9 9 8 7 5 4 4 3 3 3 4 4 3 2 3 4 3 4 4 4 5 5 4 6 7 8 8 8 9 7 6 5 7 15 14 14 14 13 12 12 12
11 11 10 9 9 7 6 4 4 4 4 4 4 5 5 4 5 5 4 4 6 5 5 5 5 6 6 7 7 8 9 9 9 8 6 14 15 14 15 14 12 12 12
12 12 10 10 10 8 7 5 4 4 4 4 5 6 7 6 6 5 5 5 5 5 5 5 6 5 5 5 8 8 9 9 9 9 8 9 14 15 14 14 13 11 12
12 11 11 11 10 9 9 8 5 5 5 5 6 7 7 7 7 6 5 5 6 5 5 4 5 4 5 5 8 9 8 8 9 9 9 7 8 12 14 13 12 11 12
11 11 12 11 11 10 9 8 6 6 6 6 6 6 8 9 8 6 5 6 6 4 4 4 4 4 5 5 6 7 7 7 9 9 8 8 7 7 10 13 13 11 12
11 11 12 11 12 12 10 8 7 6 7 6 5 5 6 7 7 5 5 5 4 4 4 5 4 4 5 6 6 6 7 7 8 9 9 9 9 8 7 9 13 12 14
8 8 9 9 9 10 8 6 5 5 4 4 4 4 5 4 4 4 3 4 3 3 4 4 5 5 5 6 7 7 7 8 8 9 10 8 8 9 9 8 7 8 13
5 6 7 8 8 7 5 6 5 4 3 3 3 4 4 3 2 2 0 2 2 3 5 5 5 6 5 4 4 6 6 8 9 9 9 8 9 9 8 8 7 6 6
3 4 5 6 6 7 6 5 3 3 2 2 2 3 2 3 3 2 1 2 3 3 5 6 5 4 4 4 4 4 5 4 5 7 7 7 8 6 8 8 7 7 6
1 3 3 4 5 6 5 3 3 2 2 2 1 1 1 3 2 2 2 2 3 3 5 6 7 8 7 4 5 6 5 5 4 3 3 4 5 4 5 5 7 7 7
1 2 3 3 2 2 4 5 6 4 3 3 2 1 0 1 1 1 1 2 3 3 5 6 6 6 8 7 4 6 7 5 4 4 3 2 3 4 4 4 5 5 6
1 1 4 5 4 3 1 3 4 2 2 2 2 2 1 1 1 1 1 2 2 2 3 4 5 5 5 6 5 4 5 5 6 6 6 4 3 2 3 4 3 4 5
2 1 2 5 5 6 6 4 4 5 5 4 3 2 1 1 0 1 2 2 2 2 3 4 4 5 4 5 4 4 3 3 3 5 7 6 4 3 3 3 3 4 4
Wind_Direction
163 155 158 153 147 141 135 131 129 126 123 121 121 123 126 127 130 131 131 130 127 123 114 106 105 107 109 112 115 116 117 118 121 121 116 113 114 116 116 113 108 108 108
151 154 159 155 151 148 143 139 137 133 129 126 124 126 128 131 131 131 132 132 131 130 127 123 121 120 122 124 126 128 128 129 134 134 126 118 124 129 129 125 122 124 121
147 155 159 157 156 154 150 148 144 142 138 135 131 130 132 135 138 138 136 136 138 140 140 139 141 140 139 141 143 145 144 145 150 154 128 90 111 163 170 149 146 142 136
148 152 157 159 159 158 157 155 151 148 145 142 139 137 137 140 144 147 148 148 150 151 150 151 154 158 162 164 164 164 165 168 174 174 141 177 228 214 202 181 171 166 160
143 150 162 161 162 162 162 162 159 155 154 152 147 145 146 147 148 151 155 158 162 167 174 179 179 177 181 190 189 189 191 198 211 211 194 216 234 247 219 201 195 191 182
145 150 168 163 165 166 167 169 168 166 165 163 157 156 158 160 161 163 167 175 185 197 208 211 212 210 208 212 218 223 224 227 232 244 249 244 238 246 235 221 215 211 202
147 153 173 167 170 172 173 174 176 175 175 174 171 171 173 176 180 184 187 197 208 214 223 236 238 238 240 237 238 242 247 251 246 243 263 268 265 260 246 226 222 222 216
154 158 173 174 175 177 178 179 181 182 183 184 185 186 188 195 203 204 207 213 221 224 226 233 242 248 251 250 247 250 252 256 259 243 246 261 278 278 256 230 222 224 223
153 158 172 175 178 183 185 186 188 189 189 189 191 194 198 207 220 228 227 230 232 233 235 242 248 254 262 261 256 255 258 260 258 243 250 250 268 278 270 243 227 225 225
157 166 172 167 167 176 187 195 194 196 197 199 200 203 207 213 225 236 236 242 247 246 244 248 254 256 258 260 261 262 263 266 262 254 252 253 260 266 272 262 243 235 232
178 178 176 169 163 162 174 197 196 198 202 205 209 212 210 213 230 248 250 250 253 255 256 258 261 262 260 258 259 261 265 254 253 256 254 256 259 261 264 269 263 248 239
189 189 182 174 165 160 174 174 173 181 187 194 195 213 197 189 219 240 258 260 262 262 263 264 262 264 265 257 260 263 257 254 255 255 254 258 258 258 260 265 269 257 244
189 192 188 180 168 167 169 158 166 172 179 190 195 195 191 205 229 245 256 270 274 275 270 268 272 263 254 252 253 252 254 256 254 255 256 262 265 264 262 261 264 257 247
184 194 187 181 176 178 173 175 177 179 185 192 196 194 196 217 234 239 244 256 261 257 255 253 250 253 257 258 256 258 258 254 253 253 257 263 266 265 264 265 263 255 248
190 192 186 183 184 183 180 182 186 193 196 199 199 204 206 219 236 240 245 252 258 255 250 251 250 251 257 264 263 258 259 256 256 254 257 264 265 263 263 262 262 258 253
195 194 186 187 189 184 186 188 196 201 203 203 214 219 216 222 230 232 241 247 253 252 248 245 246 250 256 261 266 262 260 260 258 255 253 260 262 260 259 259 260 259 258
197 193 189 191 189 188 191 194 197 203 204 212 223 226 225 225 229 230 237 246 248 247 248 246 249 248 257 259 264 266 264 259 258 258 256 252 256 255 253 253 255 254 255
194 192 194 195 190 193 196 195 199 206 209 218 222 225 226 225 224 224 231 243 242 235 235 240 244 248 253 255 261 268 268 267 264 261 259 252 246 245 247 249 251 249 250
198 195 196 196 191 194 196 197 200 202 205 209 208 214 223 226 222 215 227 241 245 240 240 243 245 238 255 260 262 267 268 269 270 268 261 254 242 237 238 244 247 247 249
206 204 203 201 198 192 191 192 194 195 199 198 198 206 209 211 209 201 219 243 250 255 260 255 259 255 252 263 273 273 269 269 270 268 264 258 246 236 232 235 242 248 247
217 210 206 201 201 189 182 183 184 189 189 195 191 182 174 163 143 141 214 294 290 273 275 278 276 271 260 246 265 274 265 259 259 262 258 252 248 237 226 227 231 234 241
233 219 213 209 203 197 195 185 173 163 160 161 148 141 133 107 78 62 12 322 305 292 287 277 264 264 253 221 235 268 286 289 262 254 253 249 247 234 229 225 225 228 232
229 215 202 203 205 205 192 166 138 120 111 127 142 134 69 69 63 42 354 322 306 291 287 284 273 266 270 254 225 239 259 262 299 298 280 271 259 239 234 228 229 231 233
69 125 132 140 176 206 193 181 173 175 179 183 166 170 51 35 25 11 349 335 317 304 295 292 284 273 273 275 255 233 240 254 261 294 301 297 286 257 247 237 240 241 235
358 111 131 134 147 141 185 191 168 152 151 135 139 165 191 270 297 4 15 6 351 334 325 318 310 295 280 278 270 251 249 247 238 248 277 293 301 281 260 257 258 255 243
340 343 147 156 163 159 159 172 175 167 158 156 169 182 203 227 281 20 20 7 350 343 338 330 318 309 296 284 273 250 240 242 237 237 248 262 277 290 289 273 262 262 256